Location: Vancouver
(49.2500°N, 123.1330°W)
Time: 06:16:24

deb Explorer IX - Visible Passes

Search period start: 25 November 2015 00:00
Search period end: 05 December 2015 00:00
Orbit: 539 x 1150 km, 38.8° (Epoch: 24 November)

Date Brightness Start Highest point End Pass type
(mag) Time Alt. Az. Time Alt. Az. Time Alt. Az.
25 Nov ? 17:11:41 10° WSW 17:17:43 27° SSW 17:23:14 10° SE visible
25 Nov ? 19:02:02 10° SW 19:04:05 11° SW 19:05:47 10° SSW visible
26 Nov ? 16:55:33 10° WSW 17:01:34 27° SSW 17:07:07 10° SSE visible
26 Nov ? 18:46:24 10° SW 18:47:55 11° SW 18:49:07 10° SSW visible
